Location: Bremen
(53.0796°N, 8.8241°E)
Time: 15:50:40
(UTC+02:00)

ISS - Pass Details

Date: 10 February 2018
Orbit: 402 x 406 km, 51.6° (Epoch: 18 June)

Event Time Altitude Azimuth Distance (km) Brightness Sun altitude
Rises 18:29:55 0° 280° (W) 2,322 1.5 -10.0°
Reaches altitude 10° 18:32:11 10° 268° (W) 1,460 0.6 -10.3°
Maximum altitude 18:35:00 27° 208° (SSW) 812 -1.9 -10.7°
Drops below altitude 10° 18:37:49 10° 148° (SSE) 1,456 -1.2 -11.1°
Enters shadow 18:39:11 - 139° (SE) 1,961 -0.7 -11.3°
